Regional Weather Roundup
Issued by NWS

Home | Current Version | Previous Version | Graphics & Text | Print | Product List | Glossary On
Versions: 1 2 3 4 5 6 7 8 9 10 11 12 13 14 15 16 17 18 19 20 21 22 23 24 25 26 27 28 29 30 31 32 33 34 35 36 37 38 39 40 41 42 43 44 45 46 47 48 49 50
000
ASUS43 KMKX 272100
RWRWI

WISCONSIN REGIONAL WEATHER ROUNDUP
NATIONAL WEATHER SERVICE MILWAUKEE/SULLIVAN WI
400 PM CDT MON MAR 27 2017

NOTE: "FAIR" INDICATES FEW OR NO CLOUDS BELOW 12,000 FEET WITH NO
SIGNIFICANT WEATHER AND/OR OBSTRUCTIONS TO VISIBILITY.

WIZ001-002-006>008-014>016-023>028-272200-
NORTHWEST WISCONSIN

CITY           SKY/WX    TMP DP  RH WIND       PRES   REMARKS
SUPERIOR ARPT  CLOUDY    47  35  62 E6        29.98F
ASHLAND        CLOUDY    47  35  63 N9        29.99R
HAYWARD        CLOUDY    56  32  40 NE9G18    29.94S
SIREN          MOSUNNY   56  33  40 E6        29.95S
CUMBERLAND     CLOUDY    52  32  46 N6        29.94S
RICE LAKE      CLOUDY    54  34  46 CALM      29.96F
CHETEK         CLOUDY    49  37  63 SE9       29.95F
LADYSMITH      CLOUDY    51  36  57 N3        29.97S
EAU CLAIRE     NOT AVBL
MENOMONIE      CLOUDY    47  37  67 CALM      29.97F
NEW RICHMOND   PTSUNNY   54  35  47 S6        29.95F
OSCEOLA        MOSUNNY   55  33  44 N3        29.97F
$$

WIZ003>005-009-010-017-018-272200-
NORTH CENTRAL WISCONSIN

CITY           SKY/WX    TMP DP  RH WIND       PRES   REMARKS
MANITOWISH WTR CLOUDY    47  34  59 N5        29.94F
ARBOR VITAE    CLOUDY    44  34  68 NE5       29.94S
WOODRUFF       CLOUDY    44  34  68 NE5       29.94S
RHINELANDER    CLOUDY    45  36  70 CALM      29.95R
EAGLE RIVER    CLOUDY    43  32  65 N7        29.94S
LAND O LAKES   CLOUDY    41  34  76 N5        29.97S
PHILLIPS       CLOUDY    47  32  57 NW3       29.94S
TOMAHAWK       CLOUDY    42  35  75 N3        29.96R
MEDFORD        CLOUDY    40  37  87 N6        29.94S
MERRILL        CLOUDY    42  39  89 NW3       29.96R
$$

WIZ029-030-035-036-043>047-272200-
CENTRAL WISCONSIN

CITY           SKY/WX    TMP DP  RH WIND       PRES   REMARKS
WAUSAU         CLOUDY    42  37  82 CALM      29.93S
MOSINEE        CLOUDY    41  39  93 VRB5      29.96R
MARSHFIELD     CLOUDY    42  36  79 N7        29.94S
STEVENS POINT  CLOUDY    40  38  93 CALM      29.95S
WAUPACA        CLOUDY    46  40  81 CALM      29.95S
WAUTOMA        CLOUDY    47  42  83 N6        29.94S
WISC RAPIDS    CLOUDY    44  40  85 N8        29.96R
CAMP DOUGLAS   NOT AVBL
$$

WIZ011>013-019>022-031-037>040-048>050-272200-
NORTHEAST WISCONSIN

CITY           SKY/WX    TMP DP  RH WIND       PRES   REMARKS
ANTIGO         CLOUDY    41  37  87 N3        29.94S
SHAWANO        CLOUDY    43  38  80 CALM      29.96S
OCONTO         CLOUDY    39  33  80 CALM      29.96S
STURGEON BAY   CLOUDY    40  34  79 NE5       29.94S
GREEN BAY      CLOUDY    42  37  82 NE9       29.96R
MANITOWOC      NOT AVBL
APPLETON       CLOUDY    43  43 100 N6        29.93S
CLINTONVILLE   CLOUDY    43  37  81 NE3       29.95S
OSHKOSH        CLOUDY    43  37  79 E8        29.94S
$$

WIZ032>034-041-042-053>061-272200-
SOUTHWEST WISCONSIN

CITY           SKY/WX    TMP DP  RH WIND       PRES   REMARKS
LA CROSSE      CLOUDY    49  41  74 NW8       29.95R
SPARTA         CLOUDY    47  42  82 N7        29.95S
VIROQUA        CLOUDY    46  43  88 CALM      29.93S
BOSCOBEL       CLOUDY    51  43  74 E3        29.94S
PRAIRIE DU CHI CLOUDY    46  44  95 CALM      29.94S FOG
PLATTEVILLE    CLOUDY    48  46  92 NE3       29.93S
$$

WIZ056-057-062-063-064-067-068-272200-
SOUTH CENTRAL WISCONSIN

CITY           SKY/WX    TMP DP  RH WIND       PRES   REMARKS
REEDSBURG      CLOUDY    47  44  88 CALM      29.92F
BARABOO/DELLS  CLOUDY    47  42  81 CALM      29.92S
LONE ROCK      CLOUDY    49  42  77 CALM      29.93F
MINERAL POINT  CLOUDY    46  45  93 N5        29.92S
MADISON        CLOUDY    48  42  80 CALM      29.92F
MIDDLETON      CLOUDY    48  44  84 CALM      29.93S
WATERTOWN      CLOUDY    47  43  85 W3        29.92S
MONROE         CLOUDY    48  43  81 N3        29.91F
JANESVILLE     CLOUDY    52  45  76 CALM      29.91F
$$

WIZ051-052-058>065-066-070>072-272200-
SOUTHEAST WISCONSIN

CITY           SKY/WX    TMP DP  RH WIND       PRES   REMARKS
MILWAUKEE      CLOUDY    45  38  76 E5        29.94S
WAUKESHA       NOT AVBL
MILWAUKEE/TIMM CLOUDY    46  37  71 CALM      29.94F
RACINE         CLOUDY    43  38  82 E7        29.95S
KENOSHA        CLOUDY    44  40  85 E7        29.93F
FOND DU LAC    CLOUDY    46  39  76 NE7       29.94R
SHEBOYGAN      CLOUDY    41  38  89 E7        29.94S
WEST BEND      CLOUDY    46  43  87 CALM      29.92F
JUNEAU         CLOUDY    46  42  87 CALM      29.93F
$$

LSZ147-162-272200-
LAKE SUPERIOR

STATION/POSITION TIME  TEMP    WIND        PRES    WAVE
                       AIR SEA DIR/SP/G            HT/PER
                 (UTC) (F)     (DEG/KT/KT) (MB)    (FT/S)
DEVILS ISLAND    2000   35     260/  5/  8 1016.3F
PORT WING        2040   38      CALM  /  1 1015.6F
SAXON HARBOR     2040   35      10/  2/  2 1015.6S
$$

LMZ867-665-643>646-272200-
LAKE MICHIGAN

STATION/POSITION TIME  TEMP    WIND        PRES    WAVE
                       AIR SEA DIR/SP/G            HT/PER
                 (UTC) (F)     (DEG/KT/KT) (MB)    (FT/S)
CHAMBERS ISLAND  2040   38        CALM     1014.2S
NORTHPORT PIER   2040   37     320/  3/  5 1014.6S
KEWAUNEE LAKESHO 2030   37      CALM  /  2 1014.2R
SHEBOYGAN LAKESH 2000   37      50/  4/  4 1014.5F
PORT WASHINGTON  2040   40     150/  3/  3 1015.2S
MILWAUKEE LAKESH 2030   39     110/  3/  3   N/A
KENOSHA   LAKESH 2000   41        CALM     1014.2
$$

TC  - TEMPERATURE IN CELSIUS
VSB - VISIBILITY IN STATUTE MILES
WCI - WIND CHILL INDEX
HX  - HEAT INDEX




USA.gov is the U.S. government's official web portal to all federal, state and local government web resources and services.